Wind_Speed
74 72 75 71 78 76 85 86 90 92 91 88 91 87 96 92 93 97 95 95 100 104 99 98 103 104 104 103 106 103 100 99 102 105 112 107 107 105
90 88 86 78 82 81 83 91 93 99 96 89 97 95 96 96 92 98 104 106 109 110 111 108 104 108 107 109 109 109 110 112 113 113 111 107 99 93
92 97 96 94 98 94 94 91 98 103 106 107 107 109 108 112 109 111 112 115 111 112 117 118 124 117 109 109 108 110 113 116 116 109 105 101 93 91
102 101 107 109 102 104 112 107 106 101 99 112 112 123 121 122 122 123 122 119 118 119 117 121 114 102 107 104 94 98 106 103 102 102 98 99 94 97
112 112 111 113 120 122 119 119 113 113 117 122 127 124 126 127 126 125 128 125 123 112 116 106 104 102 106 104 103 103 103 101 104 99 99 101 103 102
119 122 122 119 121 121 126 128 125 129 130 131 131 136 128 126 127 126 130 128 125 117 105 108 104 108 104 114 114 109 104 103 105 104 105 104 104 106
124 126 128 126 126 122 127 131 133 132 126 128 126 123 123 127 123 122 127 126 116 105 97 97 100 104 99 102 110 112 111 114 113 113 113 110 112 111
112 116 123 126 134 132 132 129 127 119 124 128 127 128 118 121 116 121 120 123 118 108 111 104 96 105 115 115 116 114 115 117 113 111 113 119 120 120
101 108 114 117 122 121 120 116 110 110 118 124 114 119 125 125 125 127 115 111 114 107 104 105 104 105 104 109 112 114 117 117 120 121 121 122 123 125
90 100 107 109 110 114 114 114 120 126 124 124 124 119 117 119 120 119 115 112 110 109 105 110 113 115 112 109 109 112 114 118 122 124 122 122 121 112
80 84 89 93 100 110 116 123 121 119 120 123 121 121 123 121 118 126 115 112 114 110 104 104 103 102 106 112 117 118 117 118 119 117 118 110 103 102
80 88 91 95 102 108 114 119 123 125 127 128 128 130 129 125 118 121 122 126 111 98 96 98 100 95 95 97 101 103 105 104 104 103 102 100 99 98
83 86 91 98 104 107 113 116 122 126 127 129 128 124 126 123 120 113 111 110 99 92 91 90 89 90 93 94 95 94 96 97 97 97 96 96 96 95
76 80 82 86 97 101 110 118 123 130 126 123 124 123 117 115 111 104 94 89 90 91 88 87 87 88 90 89 88 91 91 92 92 94 94 94 95 96
68 71 74 77 82 88 96 103 104 116 124 113 98 93 93 93 89 86 81 79 85 86 86 85 84 84 84 85 86 90 93 94 94 93 94 93 95 95
64 66 69 72 73 77 77 79 80 82 84 86 86 83 78 80 80 78 77 79 80 81 81 81 81 82 83 84 84 88 92 93 98 99 97 95 94 93
59 60 61 62 67 69 68 66 65 68 72 76 75 73 71 69 69 71 73 75 76 76 75 76 77 79 81 84 86 89 91 94 94 94 96 94 93 92
52 53 55 58 60 61 61 62 63 67 70 71 70 69 68 67 68 70 71 73 74 74 75 76 78 79 81 83 85 86 89 88 89 88 88 85 85 89
47 50 52 56 57 55 59 61 62 65 67 68 68 66 65 64 64 65 67 68 69 70 72 73 74 74 76 77 77 83 83 82 83 83 81 81 79 86
44 45 46 47 48 51 53 54 56 58 58 57 57 57 58 60 61 61 62 63 64 65 68 68 70 72 73 75 77 82 84 84 83 82 81 79 78 78
39 40 40 40 41 43 44 45 45 46 47 49 50 52 54 54 55 55 57 59 61 64 68 71 73 75 77 78 79 82 84 86 84 79 76 74 73 72
34 35 36 36 37 37 39 40 40 42 43 44 45 46 48 51 54 57 60 63 66 70 72 76 78 79 80 79 79 78 78 77 76 74 74 70 65 59
30 31 32 33 33 34 35 36 36 37 39 42 45 48 52 55 59 63 66 70 73 75 76 78 79 79 80 76 73 72 74 72 70 69 67 63 63 56
Wind_Direction
262 268 265 260 263 271 265 267 265 269 268 272 270 272 270 271 273 275 274 276 276 277 277 276 278 278 278 279 279 275 273 276 278 281 282 285 286 286
266 269 264 264 265 262 264 267 268 274 274 273 276 277 272 269 270 273 276 278 278 274 278 279 278 281 279 278 277 275 274 277 281 281 285 284 285 289
266 264 262 267 262 265 265 268 273 270 274 272 270 273 269 271 270 270 275 280 278 278 280 283 286 285 282 280 279 278 278 278 281 284 286 286 285 293
260 258 260 261 258 261 266 265 266 265 267 272 273 275 281 279 281 278 279 279 280 280 282 283 282 280 279 280 279 278 281 279 283 285 283 285 286 287
256 258 259 259 263 266 263 260 259 259 263 267 271 273 276 275 276 274 275 282 286 281 285 274 275 277 274 274 275 276 277 278 279 282 280 284 286 285
253 255 255 259 262 266 268 270 264 264 267 267 266 270 275 274 274 275 276 279 278 282 279 278 276 277 274 268 270 276 274 276 277 281 281 282 283 282
255 254 254 256 258 261 260 265 268 270 269 268 271 273 274 274 275 276 276 282 282 281 281 280 279 272 273 273 276 277 275 276 280 280 280 280 281 278
253 254 257 256 257 258 261 265 268 264 267 266 266 272 276 275 277 279 280 282 285 286 286 283 276 272 270 270 270 272 272 274 275 273 273 276 279 282
252 252 252 254 255 258 258 260 261 261 267 269 268 270 271 269 275 276 278 280 279 278 277 277 278 277 275 271 272 273 272 272 272 273 276 277 280 283
249 248 250 251 254 254 256 255 259 260 265 264 269 273 273 276 277 278 281 280 283 282 277 273 270 273 271 272 273 273 273 273 273 275 276 280 281 283
246 246 246 247 249 248 250 254 259 260 263 268 267 271 274 276 277 282 282 286 286 280 277 276 273 272 271 270 273 273 274 275 274 276 276 277 280 281
241 243 245 246 244 247 249 251 254 258 263 266 267 270 274 278 279 281 282 285 284 280 275 272 273 273 271 270 273 273 273 274 275 276 278 279 279 278
245 246 246 247 248 250 251 252 254 258 262 261 270 273 277 280 280 280 279 278 277 276 271 271 272 273 274 275 275 276 275 275 275 276 276 277 277 277
249 250 251 252 252 252 252 253 256 259 264 266 272 275 275 276 277 277 274 273 272 270 271 272 272 273 273 274 274 275 275 275 276 276 277 277 276 276
253 253 253 255 257 257 259 260 263 263 264 269 270 271 270 271 270 269 268 270 269 270 271 272 273 273 274 274 275 276 278 278 277 277 276 277 277 277
257 258 257 257 259 260 261 262 262 262 265 268 269 270 266 263 265 268 270 270 269 270 270 271 272 273 274 275 275 275 276 276 278 279 280 280 281 281
255 257 258 259 260 261 262 263 264 265 265 264 264 264 265 266 269 270 271 273 274 274 274 274 274 274 274 274 275 276 276 277 277 278 278 280 281 281
261 260 260 260 261 263 264 264 260 259 260 263 265 266 267 269 270 271 272 274 275 276 276 275 275 275 276 277 277 276 277 278 279 279 278 278 279 280
253 254 254 253 255 256 256 257 259 261 262 265 268 272 274 276 277 277 276 276 276 276 276 276 277 277 277 277 278 278 278 278 278 279 280 281 280 279
254 255 256 259 261 261 263 264 264 265 268 272 275 276 276 275 275 276 277 278 278 279 279 279 279 280 281 281 282 283 284 285 284 282 282 281 280 278
256 258 259 259 259 259 261 264 268 270 271 271 272 274 275 276 278 278 279 280 281 282 283 283 283 283 283 284 284 284 284 284 283 282 281 279 278 279
256 257 260 262 265 266 267 268 269 270 272 274 275 277 279 281 282 283 284 285 286 285 286 286 286 287 286 286 286 285 284 282 282 282 283 281 278 275
257 260 262 264 265 266 267 269 272 275 278 280 282 284 286 288 289 289 289 289 289 289 289 289 289 289 288 288 287 285 284 284 284 285 284 282 279 277
Height
10503 10501 10503 10500 10504 10504 10502 10502 10504 10508 10506 10508 10507 10512 10513 10514 10512 10511 10512 10513 10511 10510 10512 10514 10513 10515 10513 10511 10510 10509 10507 10504 10502 10500 10497 10495 10492 10486
10473 10473 10475 10477 10482 10483 10483 10479 10484 10482 10481 10484 10482 10487 10492 10490 10490 10489 10488 10488 10486 10485 10483 10484 10484 10483 10483 10483 10482 10481 10480 10477 10474 10470 10469 10465 10463 10458
10444 10444 10447 10450 10456 10460 10459 10459 10456 10459 10455 10458 10458 10458 10460 10463 10464 10465 10464 10463 10460 10459 10457 10454 10451 10449 10448 10447 10447 10447 10445 10444 10443 10443 10438 10436 10432 10429
10414 10415 10418 10421 10425 10432 10430 10433 10435 10436 10432 10430 10432 10431 10427 10427 10431 10433 10435 10435 10437 10432 10431 10431 10426 10423 10421 10419 10416 10415 10412 10411 10412 10410 10408 10407 10405 10406
10378 10383 10389 10392 10392 10391 10396 10401 10406 10405 10408 10407 10406 10405 10404 10402 10403 10406 10407 10405 10404 10401 10402 10402 10399 10398 10397 10393 10391 10390 10388 10387 10388 10386 10382 10381 10381 10377
10347 10352 10355 10362 10363 10362 10362 10358 10371 10376 10371 10374 10379 10377 10375 10376 10378 10379 10380 10381 10382 10375 10372 10370 10368 10367 10368 10367 10367 10367 10365 10364 10362 10360 10359 10356 10354 10351
10314 10320 10324 10330 10335 10336 10334 10337 10338 10340 10343 10346 10344 10346 10345 10345 10347 10351 10349 10348 10352 10349 10346 10343 10342 10340 10341 10339 10337 10337 10337 10336 10335 10334 10331 10330 10328 10324
10286 10290 10291 10299 10302 10307 10312 10312 10313 10315 10313 10314 10318 10320 10320 10320 10319 10321 10319 10318 10321 10315 10313 10314 10314 10313 10311 10313 10310 10310 10308 10310 10307 10305 10305 10305 10300 10295
10255 10257 10262 10271 10273 10280 10282 10288 10288 10287 10286 10290 10292 10293 10294 10292 10294 10296 10296 10295 10296 10292 10292 10288 10283 10282 10283 10281 10278 10279 10278 10278 10275 10275 10274 10272 10269 10264
10226 10231 10237 10249 10252 10256 10259 10261 10260 10261 10264 10266 10267 10266 10264 10265 10263 10264 10265 10263 10264 10257 10253 10256 10255 10254 10252 10251 10249 10246 10245 10245 10244 10242 10242 10240 10237 10233
10204 10209 10215 10222 10228 10234 10235 10232 10232 10233 10237 10240 10242 10242 10238 10236 10233 10234 10234 10234 10229 10228 10225 10222 10220 10221 10222 10221 10219 10215 10214 10212 10210 10211 10210 10207 10206 10204
10185 10189 10193 10196 10200 10205 10208 10209 10212 10213 10213 10213 10214 10215 10215 10212 10208 10209 10207 10205 10199 10196 10194 10193 10191 10190 10191 10191 10188 10185 10183 10181 10179 10178 10179 10179 10177 10174
10163 10167 10171 10173 10177 10182 10185 10188 10191 10191 10192 10189 10192 10191 10187 10188 10185 10180 10177 10177 10174 10173 10169 10167 10165 10165 10164 10162 10159 10159 10156 10154 10153 10151 10151 10150 10147 10145
10146 10148 10151 10156 10159 10162 10165 10166 10168 10167 10167 10168 10168 10169 10164 10162 10159 10153 10151 10149 10149 10149 10145 10143 10142 10142 10140 10138 10134 10128 10129 10126 10125 10122 10122 10121 10120 10117
10126 10129 10133 10136 10140 10142 10145 10147 10146 10146 10147 10147 10144 10141 10138 10139 10133 10130 10126 10127 10128 10126 10124 10122 10120 10119 10117 10115 10113 10104 10098 10094 10093 10093 10092 10094 10090 10086
10109 10112 10115 10119 10121 10121 10123 10123 10124 10126 10125 10121 10118 10117 10117 10114 10110 10107 10106 10107 10107 10105 10103 10101 10098 10095 10093 10090 10089 10083 10076 10072 10063 10060 10063 10061 10058 10051
10092 10094 10097 10100 10101 10101 10102 10103 10102 10101 10100 10100 10100 10098 10096 10092 10090 10088 10087 10086 10085 10082 10080 10078 10076 10074 10070 10065 10061 10057 10052 10046 10044 10042 10036 10035 10029 10023
10074 10076 10078 10079 10080 10082 10084 10086 10086 10084 10083 10081 10079 10077 10074 10072 10071 10070 10069 10066 10063 10060 10058 10056 10053 10050 10046 10042 10037 10031 10023 10022 10017 10016 10012 10012 10007 9992
10061 10062 10064 10065 10067 10070 10069 10068 10067 10065 10063 10061 10060 10059 10058 10057 10056 10053 10049 10046 10043 10039 10035 10032 10029 10027 10024 10019 10016 10002 9998 9997 9992 9988 9985 9981 9983 9968
10047 10049 10051 10052 10052 10052 10052 10052 10050 10049 10047 10047 10045 10043 10041 10039 10037 10034 10031 10028 10024 10019 10014 10011 10008 10003 9998 9995 9990 9976 9969 9963 9959 9957 9954 9951 9947 9943
10034 10036 10038 10038 10038 10037 10036 10036 10036 10035 10033 10032 10030 10028 10026 10024 10021 10017 10013 10009 10005 10000 9994 9988 9984 9979 9973 9969 9964 9955 9944 9934 9926 9925 9923 9919 9918 9918
10023 10024 10025 10025 10025 10024 10024 10024 10023 10021 10020 10019 10018 10015 10012 10008 10005 10000 9995 9990 9985 9979 9973 9965 9958 9951 9944 9939 9935 9927 9917 9907 9902 9899 9893 9890 9891 9895
10014 10015 10015 10015 10015 10015 10014 10013 10012 10011 10009 10007 10004 10001 9998 9992 9987 9981 9976 9969 9962 9954 9948 9940 9931 9922 9912 9908 9905 9899 9889 9884 9880 9874 9866 9865 9859 9864